CAPE
0 0 0 0 0 0 0 0 0 0 0 0 0 0 0 0 0 0 0 0 0 0 0 0 0 0 0 1 4 3 4 7 3 1 0 0 0 0 0 0 0 0 6
0 0 0 0 0 0 0 0 0 0 0 0 0 0 0 0 0 0 0 0 0 0 0 0 0 0 0 0 3 3 5 2 4 1 0 0 0 0 0 0 0 0 0
0 0 0 0 0 0 0 0 0 0 0 0 0 0 0 0 0 0 0 0 0 0 0 0 0 0 0 5 3 3 4 6 0 2 1 0 0 0 0 0 0 0 0
0 0 0 0 0 0 0 0 0 0 0 0 0 0 0 0 0 0 0 0 0 0 0 0 0 0 0 3 4 8 3 3 0 0 0 1 0 0 0 0 0 0 0
0 0 0 0 0 0 0 0 0 0 0 0 0 0 0 0 0 0 0 0 0 0 0 0 0 0 6 8 7 4 3 1 3 1 0 0 0 0 1 0 0 0 0
0 0 0 0 0 0 0 0 0 0 0 0 0 0 0 0 2 2 0 0 0 0 0 0 0 0 2 3 5 10 8 6 2 2 1 0 0 0 0 1 0 0 0
0 0 0 0 0 0 0 0 0 0 0 0 0 0 0 0 2 1 0 0 0 0 1 0 2 2 0 1 1 4 5 10 17 4 2 0 0 0 0 1 0 0 0
0 0 0 0 0 0 0 0 0 0 0 0 0 0 0 0 1 1 0 0 0 0 1 0 1 0 0 1 1 1 2 0 0 3 0 0 2 1 0 1 0 0 0
0 0 0 0 0 0 0 0 0 0 0 0 0 0 0 0 1 1 0 0 0 0 0 0 0 0 2 4 2 0 0 1 0 9 6 7 4 4 5 0 0 0 0
0 0 0 0 0 0 0 0 0 0 0 0 0 0 0 0 0 1 0 0 0 0 0 1 2 0 2 3 3 2 0 0 0 0 0 0 0 0 2 0 0 0 0
0 0 0 0 0 0 0 0 0 0 0 0 0 0 0 0 0 1 1 0 0 0 0 1 0 3 3 5 3 1 2 0 0 0 0 0 0 0 0 0 0 0 0
0 0 0 0 0 0 0 0 0 0 0 0 0 0 0 0 0 0 0 1 0 0 0 0 0 3 4 4 2 7 5 2 0 0 0 0 0 0 0 0 0 0 0
0 0 0 0 0 0 0 0 0 0 0 0 0 0 0 0 0 0 0 0 0 0 0 0 1 1 0 0 3 3 0 0 0 0 0 0 0 0 0 0 0 0 0
0 0 0 0 0 0 0 0 0 0 0 0 0 0 0 0 0 0 0 0 0 0 0 0 0 0 0 0 0 0 0 0 0 0 0 0 0 0 0 0 0 0 0
0 0 0 0 0 0 0 0 0 0 0 0 0 0 0 0 0 0 0 0 0 0 0 0 0 0 0 0 0 0 0 0 0 0 0 0 0 0 0 0 0 0 0
0 0 0 0 0 0 0 0 0 0 0 0 0 0 0 0 0 0 0 0 0 0 0 0 0 0 0 0 0 0 0 0 0 0 0 0 0 0 0 0 0 0 0
0 0 0 0 0 0 0 0 0 0 0 0 0 0 0 0 0 0 0 0 0 0 0 0 0 0 0 0 0 0 0 0 0 0 0 0 0 0 0 0 0 0 0
0 0 0 0 0 0 0 0 0 0 0 0 0 0 0 0 0 0 0 0 0 0 0 0 0 0 0 0 0 0 0 0 0 0 0 0 0 0 0 0 0 0 0
0 0 0 0 0 0 0 0 0 0 0 0 0 0 0 0 0 0 0 0 0 0 0 0 0 0 0 0 0 0 0 0 0 0 0 0 0 0 0 0 0 0 0
0 0 0 0 0 0 0 0 0 0 0 0 0 0 0 0 0 0 0 0 0 0 0 0 0 0 0 0 0 0 0 0 0 0 0 0 0 0 0 0 0 0 0
0 0 0 0 0 0 0 0 0 0 0 0 0 0 0 0 0 0 0 0 0 0 0 0 0 0 0 0 0 0 0 0 0 0 0 0 0 0 0 0 0 0 0
0 0 0 0 0 0 0 0 0 0 0 0 0 0 3 0 0 0 0 0 0 0 0 0 0 0 0 0 0 0 0 0 0 0 0 0 0 0 0 0 0 0 0
0 0 0 0 0 0 0 0 0 0 0 0 0 0 0 0 0 0 0 0 0 0 0 0 0 0 0 0 0 0 0 0 0 0 0 0 0 0 0 0 0 0 0
0 0 0 0 0 0 0 0 0 0 0 0 0 0 0 0 0 0 0 0 0 0 0 0 0 0 0 0 0 0 0 0 0 0 0 0 0 0 0 0 0 0 0
0 0 0 0 0 0 0 0 0 0 0 0 0 0 0 0 0 0 0 0 0 0 0 0 0 0 0 0 0 0 0 0 0 0 0 0 0 0 0 0 0 0 0
0 0 0 0 0 0 0 0 0 0 0 0 0 0 0 0 0 0 0 0 0 0 0 0 0 0 0 0 0 0 0 0 0 0 0 0 0 0 0 0 0 0 0
CIN
0 0 0 0 0 0 0 0 0 0 0 0 0 0 0 0 0 0 0 0 0 0 0 0 0 0 0 0 0 0 0 0 0 -1 0 0 0 0 0 0 0 0 0
0 0 0 0 0 0 0 0 0 0 0 0 0 0 0 0 0 0 0 0 0 0 0 0 0 0 0 0 -1 0 0 -1 0 0 0 0 0 0 0 0 0 0 0
0 0 0 0 0 0 0 0 0 0 0 0 0 0 0 0 0 0 0 0 0 0 0 0 0 0 0 0 -1 0 0 0 -1 0 0 0 0 0 0 0 0 0 0
0 0 0 0 0 0 0 0 0 0 0 0 0 0 0 0 0 0 0 0 0 0 0 0 0 0 0 0 0 0 0 -1 0 0 0 -1 -1 0 0 0 0 0 0
0 0 0 0 0 0 0 0 0 0 0 0 0 0 0 0 0 0 0 0 0 0 0 0 0 0 0 0 0 0 0 0 -1 0 0 0 -1 0 0 0 0 0 0
0 0 0 0 0 0 0 0 0 0 0 0 0 0 0 0 0 0 0 0 0 0 0 0 0 0 0 0 0 0 0 0 0 0 0 0 0 0 0 0 0 0 0
0 0 0 0 0 0 0 0 0 0 0 0 0 0 0 0 0 0 0 0 0 0 0 0 0 0 -1 -1 0 0 -1 0 0 0 0 0 0 0 0 0 0 0 0
0 0 0 0 0 0 0 0 0 0 0 0 0 0 0 0 0 0 0 0 0 0 0 0 0 -1 0 -1 0 0 0 -1 -1 0 -2 0 0 0 0 0 0 0 0
0 0 0 0 0 0 0 0 0 0 0 0 0 0 0 0 0 0 0 0 0 0 0 -2 -2 0 0 0 0 0 0 -1 0 0 0 0 0 0 0 0 0 0 0
0 0 0 0 0 0 0 0 0 0 0 0 0 0 0 0 0 0 0 0 0 0 0 0 0 0 0 0 0 0 0 0 0 0 0 0 0 0 0 0 0 0 0
0 0 0 0 0 0 0 0 0 0 0 0 0 0 0 0 0 0 0 0 0 0 0 0 0 0 0 0 0 0 0 -1 0 0 0 0 0 0 0 0 0 0 0
0 0 0 0 0 0 0 0 0 0 0 0 0 0 0 0 0 0 0 0 0 0 0 0 0 0 0 0 0 0 0 0 0 0 0 0 0 0 0 0 0 0 0
0 0 0 0 0 0 0 0 0 0 0 0 0 0 0 0 0 0 0 0 0 0 0 0 0 0 0 0 0 0 0 0 0 0 0 0 0 0 0 0 0 0 0
0 0 0 0 0 0 0 0 0 0 0 0 0 0 0 0 0 0 0 0 0 0 0 0 0 0 0 0 0 0 0 0 0 0 0 0 0 0 0 0 0 0 0
0 0 0 0 0 0 0 0 0 0 0 0 0 0 0 0 0 0 0 0 0 0 0 0 0 0 0 0 0 0 0 0 0 0 0 0 0 0 0 0 0 0 0
0 0 0 0 0 0 0 0 0 0 0 0 0 0 0 0 0 0 0 0 0 0 0 0 0 0 0 0 0 0 0 0 0 0 0 0 0 0 0 0 0 0 0
0 0 0 0 0 0 0 0 0 0 0 0 0 0 0 0 0 0 0 0 0 0 0 0 0 0 0 0 0 0 0 0 0 0 0 0 0 0 0 0 0 0 0
0 0 0 0 0 0 0 0 0 0 0 0 0 0 0 0 0 0 0 0 0 0 0 0 0 0 0 0 0 0 0 0 0 0 0 0 0 0 0 0 0 0 0
0 0 0 0 0 0 0 0 0 0 0 0 0 0 0 0 0 0 0 0 0 0 0 0 0 0 0 0 0 0 0 0 0 0 0 0 0 0 0 0 0 0 0
0 0 0 0 0 0 0 0 0 0 0 0 0 0 0 0 0 0 0 0 0 0 0 0 0 0 0 0 0 0 0 0 0 0 0 0 0 0 0 0 0 0 0
0 0 0 0 0 0 0 0 0 0 0 0 0 0 0 0 0 0 0 0 0 0 0 0 0 0 0 0 0 0 0 0 0 0 0 0 0 0 0 0 0 0 0
0 0 0 0 0 0 0 0 0 0 0 0 0 0 0 0 0 0 0 0 0 0 0 0 0 0 0 0 0 0 0 0 0 0 0 0 0 0 0 0 0 0 0
0 0 0 0 0 0 0 0 0 0 0 0 0 0 0 0 0 0 0 0 0 0 0 0 0 0 0 0 0 0 0 0 0 0 0 0 0 0 0 0 0 0 0
0 0 0 0 0 0 0 0 0 0 0 0 0 0 0 0 0 0 0 0 0 0 0 0 0 0 0 0 0 0 0 0 0 0 0 0 0 0 0 0 0 0 0
0 0 0 0 0 0 0 0 0 0 0 0 0 0 0 0 0 0 0 0 0 0 0 0 0 0 0 0 0 0 0 0 0 0 0 0 0 0 0 0 0 0 0
0 0 0 0 0 0 0 0 0 0 0 0 0 0 0 0 0 0 0 0 0 0 0 0 0 0 0 0 0 0 0 0 0 0 0 0 0 0 0 0 0 0 0
Wind_Speed
11 8 8 7 7 6 6 5 4 4 3 4 4 5 5 6 7 6 7 7 8 8 9 10 11 13 11 12 10 11 11 10 9 8 7 11 14 16 16 16 16 15 16
12 10 10 10 8 7 6 5 5 4 4 3 4 5 5 6 8 7 8 7 8 9 10 11 11 10 13 13 11 14 12 11 10 11 8 9 10 12 13 15 11 12 13
12 12 11 10 9 8 7 6 5 4 3 4 5 5 5 6 6 6 7 7 7 7 8 9 11 13 13 12 12 12 11 10 10 8 8 7 5 8 8 9 12 11 10
12 12 11 10 9 8 7 7 5 4 4 4 3 4 4 6 6 7 9 7 6 7 8 9 9 12 13 12 12 11 12 10 10 8 8 7 7 7 5 7 8 8 9
13 11 10 10 10 9 8 7 6 5 4 4 3 4 4 4 6 7 7 6 6 7 7 9 9 12 21 19 9 10 11 9 8 8 8 7 8 6 8 3 4 5 9
13 12 11 10 9 9 8 8 6 6 4 5 3 3 4 5 13 14 9 5 7 8 9 9 10 12 16 23 21 20 15 11 10 8 8 9 9 8 5 4 4 3 3
13 12 11 10 9 9 8 8 7 6 4 5 3 4 3 5 13 13 10 5 6 6 9 10 10 10 13 14 17 17 13 19 16 7 8 7 6 9 8 6 6 5 3
13 13 13 12 10 9 8 7 7 5 5 4 4 4 4 4 12 13 9 4 4 4 7 8 11 13 15 16 12 12 11 11 10 6 5 6 6 7 7 3 3 2 2
13 13 11 12 12 10 9 8 7 5 5 4 4 5 4 4 11 12 7 3 4 4 7 6 9 12 20 22 12 13 12 10 12 15 15 15 14 15 12 3 4 2 3
14 12 11 11 11 11 9 9 6 4 6 5 6 4 4 3 9 12 8 4 4 3 5 7 14 15 18 20 10 10 12 10 10 9 7 8 9 9 14 7 4 3 1
10 11 10 10 11 11 10 8 7 5 6 4 5 4 2 2 5 10 11 4 2 3 4 5 6 17 18 19 18 11 11 9 12 8 6 6 5 5 5 5 5 3 2
13 12 12 12 9 9 12 10 8 8 7 4 4 3 2 1 4 7 9 8 6 2 3 4 6 15 16 17 14 19 17 11 7 7 6 6 6 5 4 4 4 4 4
14 13 12 11 10 10 11 11 8 7 6 5 4 3 2 1 1 6 6 7 7 3 2 7 11 13 15 11 18 19 11 7 6 7 7 6 6 4 4 3 2 2 4
14 13 12 12 11 10 8 8 7 7 6 5 5 4 2 2 1 1 3 3 6 4 6 5 8 11 13 11 8 9 7 7 6 6 7 6 6 3 3 3 2 3 4
12 12 13 10 12 10 7 7 7 5 7 7 4 4 4 3 1 4 5 2 1 4 4 4 5 5 8 8 8 7 7 8 8 7 7 7 6 5 3 4 5 5 6
12 10 11 10 10 9 9 8 11 11 14 13 14 8 5 8 7 7 9 7 7 7 5 3 4 5 7 7 8 8 8 9 8 7 7 6 6 6 5 4 5 6 6
14 12 10 11 11 11 11 10 10 10 13 14 15 14 12 9 8 8 12 11 10 10 5 2 3 4 5 6 6 6 7 8 8 6 6 7 6 5 5 5 5 6 6
11 17 11 11 11 10 11 11 9 11 10 8 12 11 13 11 9 8 10 8 5 6 4 3 3 2 3 4 6 6 7 7 7 7 6 6 7 4 5 4 5 4 4
11 10 11 10 11 12 10 10 10 9 9 8 6 10 9 11 9 8 8 4 4 3 3 3 2 2 3 3 4 4 5 6 7 6 6 6 6 4 4 4 4 6 5
10 14 13 10 11 12 11 11 11 10 10 9 8 7 5 4 2 0 3 3 3 2 3 3 2 2 3 3 4 4 5 7 7 7 7 6 5 3 3 3 4 4 3
9 11 14 10 11 12 12 12 11 11 10 9 8 8 14 6 5 5 4 4 3 3 3 3 2 2 3 3 4 4 4 5 6 6 6 6 6 5 4 3 4 4 2
11 11 12 11 11 12 12 12 12 11 11 11 9 10 20 4 5 5 5 4 3 3 3 3 3 2 3 3 2 3 4 5 6 7 7 7 6 6 5 4 4 2 4
12 14 13 11 11 14 12 12 12 12 12 11 10 11 10 7 6 6 6 5 4 3 2 3 4 2 1 2 2 0 2 3 5 6 6 7 6 6 5 4 3 4 4
12 14 15 13 12 13 13 13 12 14 13 12 12 11 10 9 8 7 6 6 4 3 3 3 3 4 2 2 2 2 2 3 3 4 6 5 5 6 5 4 4 5 3
11 12 14 15 15 14 14 14 13 13 12 12 12 11 10 10 9 8 7 6 6 5 4 3 3 4 4 2 3 4 5 6 3 5 4 5 5 7 4 4 4 4 5
13 13 12 12 13 15 15 14 14 13 13 12 12 12 11 11 10 9 8 7 6 5 5 3 4 5 4 2 2 3 7 5 5 8 5 4 5 5 4 5 8 4 5
Wind_Direction
150 144 140 136 131 133 127 124 120 102 61 46 13 13 14 350 332 351 349 356 344 347 350 354 356 352 343 341 345 351 353 349 351 357 358 359 12 18 18 20 24 29 44
150 145 143 141 141 136 133 131 116 99 70 45 20 32 17 345 331 7 357 351 348 355 352 354 352 355 350 344 348 356 356 353 350 353 2 358 18 1 20 24 21 28 30
147 149 150 151 149 139 132 125 100 98 55 43 47 34 1 331 337 9 357 347 348 357 350 353 343 356 352 350 350 359 355 355 357 1 360 0 352 7 16 23 22 28 29
154 155 154 157 145 139 135 127 124 129 103 75 42 29 349 327 342 24 1 344 352 0 354 353 345 356 350 358 349 0 352 358 359 4 4 5 9 358 11 32 31 25 27
153 157 157 147 142 141 138 136 130 122 122 100 70 29 347 350 345 26 8 344 2 3 357 355 345 354 359 6 358 360 0 360 3 4 9 3 10 5 11 356 26 20 36
151 158 151 145 144 146 143 142 130 122 121 99 71 55 14 12 7 20 16 4 18 11 7 356 344 352 356 5 7 9 16 7 8 8 358 6 1 357 341 12 11 359 18
152 151 148 147 155 153 145 139 142 129 129 107 75 59 32 339 16 27 30 23 31 13 21 358 348 0 354 1 5 5 9 13 12 4 0 2 346 348 339 12 37 49 45
157 159 160 156 152 147 145 144 141 131 136 119 94 57 39 341 20 32 36 33 29 26 23 356 348 1 2 2 3 7 4 1 354 4 8 357 357 354 356 3 26 27 23
167 168 161 153 153 152 152 145 141 145 128 116 106 80 47 340 21 36 32 30 22 19 24 12 352 4 5 9 5 5 5 359 343 4 19 19 23 23 24 358 7 43 26
170 171 158 156 152 150 146 145 141 141 133 124 110 97 73 4 0 36 51 27 15 358 360 15 7 9 11 12 13 358 4 354 343 353 358 8 14 16 28 27 358 35 57
151 149 150 148 147 145 141 141 141 138 121 117 117 116 86 38 350 42 47 44 32 356 7 9 355 8 14 15 18 12 6 359 344 349 352 360 351 8 23 16 17 15 9
142 149 153 154 151 146 144 139 147 137 137 145 138 138 138 288 72 46 47 48 45 34 19 346 341 9 17 18 23 20 17 11 355 352 351 357 358 7 359 6 27 38 39
143 152 152 148 148 151 150 145 148 149 150 158 150 125 123 87 20 64 53 53 45 56 1 1 4 19 21 16 18 22 14 10 3 2 351 344 341 341 338 347 350 50 47
150 155 150 148 149 154 154 149 157 156 156 159 144 141 135 83 36 16 67 40 41 40 21 356 24 32 34 21 359 11 13 8 2 354 338 327 330 0 1 339 18 20 56
152 156 156 152 154 155 155 153 159 159 161 159 151 146 129 114 95 89 96 83 106 53 42 21 16 11 17 8 358 3 9 7 8 356 350 345 342 359 12 1 38 51 69
154 165 162 156 156 153 147 143 159 158 162 155 141 124 119 133 113 96 91 78 82 93 52 36 35 22 23 3 358 355 4 3 358 352 350 344 345 7 17 22 52 58 68
159 166 162 160 162 158 155 150 147 156 154 152 147 141 134 138 126 106 89 84 83 81 82 44 56 32 20 358 357 356 348 352 343 353 350 349 346 2 26 33 55 65 59
167 164 167 164 165 164 162 153 154 157 157 159 156 149 143 137 132 123 106 88 54 46 75 80 65 34 29 6 350 357 348 349 352 352 355 352 351 351 27 31 44 59 63
170 168 167 167 164 160 161 156 153 156 157 155 153 149 150 148 134 125 103 103 110 88 79 67 65 50 30 3 334 345 349 348 344 342 356 1 346 342 8 17 44 60 65
172 172 168 168 163 161 161 163 158 161 162 166 159 155 128 87 99 42 90 97 104 105 107 105 79 71 52 12 344 343 1 360 356 355 351 348 344 323 4 356 38 65 47
174 171 172 171 171 170 167 170 168 164 163 172 163 162 160 150 153 159 142 131 140 132 118 121 100 82 70 42 2 349 21 354 348 343 344 343 339 347 348 8 48 49 53
174 175 176 178 171 175 175 172 170 167 162 167 158 168 175 136 150 158 145 133 145 139 137 135 116 111 110 89 39 356 14 1 343 346 342 339 339 351 358 19 32 26 63
174 175 175 176 177 175 175 177 172 168 163 164 158 166 165 159 158 162 157 148 145 136 128 120 121 95 57 91 87 86 33 340 320 327 329 333 338 353 359 15 8 27 59
184 180 177 172 175 178 179 177 173 172 164 161 163 169 158 160 162 160 159 150 145 143 140 133 128 134 108 49 56 354 335 293 299 310 319 316 328 349 10 20 17 16 38
188 189 189 178 176 179 177 176 175 173 169 166 166 167 160 157 157 154 160 156 152 152 163 159 148 146 145 122 59 344 316 333 335 321 319 334 349 2 359 23 16 17 42
186 190 193 188 182 179 178 179 174 173 172 170 169 166 162 159 160 154 158 160 159 163 156 164 164 154 153 164 80 7 346 346 24 5 350 356 8 16 16 31 30 24 26